This is the latest recevied weather packets stored in our database for station/object N9BLE. If no packets are shown the sender has not sent any weather packets the latest 10 day(s).
| Time | Temp. | Humidity | Pressure | Rain* | Wind** | Luminosity | Snow |
|---|---|---|---|---|---|---|---|
| 1777916912 | 25° C | 35% | 1004 hPa | 0 mm | - | 761 W/m² | - |
| 1777916609 | 25.56° C | 39% | 1004.1 hPa | 0 mm | - | 757 W/m² | - |
| 1777916306 | 25° C | 38% | 1004.3 hPa | 0 mm | - | 763 W/m² | - |
| 1777916003 | 25° C | 38% | 1004.4 hPa | 0 mm | - | 751 W/m² | - |
| 1777915700 | 24.44° C | 36% | 1004.6 hPa | 0 mm | - | 743 W/m² | - |
| 1777915396 | 25° C | 35% | 1004.8 hPa | 0 mm | - | 756 W/m² | - |
| 1777915092 | 24.44° C | 39% | 1004.8 hPa | 0 mm | - | 752 W/m² | - |
| 1777914790 | 24.44° C | 40% | 1004.5 hPa | 0 mm | - | 561 W/m² | - |
| 1777914487 | 24.44° C | 40% | 1004.7 hPa | 0 mm | - | 239 W/m² | - |
| 1777914184 | 23.89° C | 41% | 1004.7 hPa | 0 mm | - | 93 W/m² | - |
| 1777913880 | 23.89° C | 40% | 1005.1 hPa | 0 mm | - | 77 W/m² | - |
| 1777913576 | 23.33° C | 40% | 1004.9 hPa | 0 mm | - | 108 W/m² | - |
| 1777913272 | 23.33° C | 44% | 1005.2 hPa | 0 mm | - | 67 W/m² | - |
| 1777912970 | 23.33° C | 38% | 1005.1 hPa | 0 mm | - | 163 W/m² | - |
| 1777912666 | 22.78° C | 41% | 1005.3 hPa | 0 mm | - | 112 W/m² | - |
| 1777912362 | 22.78° C | 39% | 1005.2 hPa | 0 mm | - | 122 W/m² | - |
| 1777912058 | 22.78° C | 43% | 1005.2 hPa | 0 mm | - | 62 W/m² | - |
| 1777911754 | 22.78° C | 42% | 1005.4 hPa | 0 mm | - | 76 W/m² | - |
| 1777911451 | 22.22° C | 45% | 1005.6 hPa | 0 mm | - | 63 W/m² | - |
| 1777911148 | 22.22° C | 43% | 1005.7 hPa | 0 mm | - | 244 W/m² | - |
| 1777910846 | 21.67° C | 45% | 1005.6 hPa | 0 mm | - | 70 W/m² | - |
| 1777910542 | 21.67° C | 45% | 1005.8 hPa | 0 mm | - | 223 W/m² | - |
| 1777910239 | 21.11° C | 47% | 1005.9 hPa | 0 mm | - | 88 W/m² | - |
| 1777909936 | 21.11° C | 42% | 1005.8 hPa | 0 mm | - | 75 W/m² | - |
| 1777909633 | 21.11° C | 46% | 1006 hPa | 0 mm | - | 62 W/m² | - |
* Rain latest hour (hover to see other rain measurements)
** Current wind speed in m/s (hover to see current wind gust speed)